{"data":{"norad_id":61894,"intl_designator":"2024-205A","name":"2024-205A","alt_names":[],"object_type":"PAYLOAD","status":"ACTIVE","operator":null,"country":"PRC","launch_date":"2024-11-11","launch_site_code":"JSC","launch_vehicle":null,"mission":null,"orbit_class":"UNKNOWN","rcs_meters":null,"size_class":null,"mass_kg":null,"dimensions":null,"purposes":[],"wikipedia_slug":null,"has_3d_model":false,"image_url":null,"decayed_at":null,"tle_current":{"epoch":"2026-09-22T21:32:53.592000Z","epoch_age_seconds":94995,"freshness":"FRESH","line1":"1 61894U 24205A   26265.89784250  .00004214  00000+0  24185-3 0  9998","line2":"2 61894  97.4048 333.1409 0016280 175.1892 184.9499 15.12967077102973","mean_motion":15.12967077,"eccentricity":0.001628,"inclination_deg":97.4048,"raan_deg":333.1409,"arg_perigee_deg":175.1892,"mean_anomaly_deg":184.9499,"bstar":0.00024185,"rev_number":10297,"period_min":95.177219775021,"perigee_km":515.91543093126,"apogee_km":538.39906900916,"semimajor_km":6905.2942499702,"source":"CELESTRAK","updated_at":"2026-09-23T09:00:21.094907Z"}}}